Regional Weather Roundup
Issued by NWS

Home | Current Version | Previous Version | Text Only | Print | Product List | Glossary On
Versions: 1 2 3 4 5 6 7 8 9 10 11 12 13 14 15 16 17 18 19 20 21 22 23 24 25 26 27 28 29 30 31 32 33 34 35 36 37 38 39 40 41 42 43 44 45 46 47 48 49 50
000
ASUS45 KCYS 301510
RWRWY

WYOMING REGIONAL WEATHER ROUNDUP
NATIONAL WEATHER SERVICE CHEYENNE WY
900 AM MDT SAT MAY 30 2015

NOTE:  "FAIR" INDICATES FEW OR NO CLOUDS BELOW 12,000 FEET
WITH NO SIGNIFICANT WEATHER AND/OR OBSTRUCTIONS TO VISIBILITY.

WYZ001-301600-
YELLOWSTONE NATIONAL PARK

CITY           SKY/WX    TMP DP  RH WIND       PRES   REMARKS
LK YELLOWSTONE   N/A     47  39  74 VRB3      30.30R
W YELLOWSTONE  NOT AVBL

$$
WYZ002>013-054>058-071-098>099-301600-
NORTHERN WYOMING

CITY           SKY/WX    TMP DP  RH WIND       PRES   REMARKS
JACKSON        SUNNY     52  43  71 CALM      30.26R
CODY           FAIR      61  45  55 SW10      30.13S
GREYBULL       FAIR      61  45  55 S6        30.11F
WORLAND        FAIR      59  49  69 W3        30.12F
SHERIDAN       FAIR      52  47  83 CALM      30.12F
BUFFALO          N/A     53  45  74 SE5       30.14F
GILLETTE       PTSUNNY   49  44  83 S24G31    30.17F
HULETT         FAIR      52  43  71 CALM      30.21F
NEWCASTLE      FAIR      50  37  62 SE15G22   30.27S

$$
WYZ014>020-022>026-101>103-301600-
CENTRAL WYOMING

CITY           SKY/WX    TMP DP  RH WIND       PRES   REMARKS
BIG PINEY      FAIR      50  43  77 CALM      30.30S
PINEDALE       FAIR      50  41  71 CALM      30.30S
DUBOIS         FAIR      54  39  58 N6        30.25S
LANDER         FAIR      54  48  80 SE5       30.19F
RIVERTON       FAIR      54  46  74 CALM      30.21F
CASPER         FAIR      52  46  80 CALM      30.20F
DOUGLAS        CLOUDY    49  46  90 SE14      30.23F

$$
WYZ021-027>030-104>119-301600-
SOUTHERN WYOMING

CITY           SKY/WX    TMP DP  RH WIND       PRES   REMARKS
EVANSTON       FAIR      54  38  54 S5        30.27S
KEMMERER       FAIR      54  41  62 NE3       30.30S
FORT BRIDGER   SUNNY     52  46  82 CALM      30.31S
ROCK SPRINGS   FAIR      52  42  69 S3        30.28S
DIXON          FAIR      53  40  60 E3        30.32S
RAWLINS        FAIR      52  40  63 SE3       30.29F
SARATOGA       FAIR      54  37  54 SE12      30.31S
LARAMIE        FAIR      50  40  68 S8        30.30F
CHEYENNE       FAIR      53  45  74 S7        30.28F
TORRINGTON     CLOUDY    51  47  86 SE12      30.24F
PINE BLUFFS    CLOUDY    50  46  87 S6        30.29F

$$


USA.gov is the U.S. government's official web portal to all federal, state and local government web resources and services.